Disclaimer

Please do not use the information listed here in-flight or in-navigation, as they are not provided to us by the airports but are provided by volunteers, so they might be outdated.

Search


Regions


Airport information page

Radio informations:
RDO - 131.95 MHz

Airport informations:
Latitude: 23° 28' 35.01" S
Longitude: 052° 00' 59.06" W
Elevation: 1788 feet - 545 meters
Operating hours: From sunrise to sunset (SR-SS)
Operating agency: Civil government, landing fees and diplomatic clearance may be required
Timezone: UTC-3(-2DT)
Fuel: Jet A1, without icing nhibitor.

100/130 octane gasoline, leaded, MIL-L-5572F (GREEN)

Runway information:
09/27 - 6890 x 147 feet< - >2100 x 45 meters

Recent METARs:
SBMG 192300Z 00000KT 9999 FEW020 23/21 Q1013
SBMG 192300Z 00000KT 9999 FEW020 23/21 Q1013
SBMG 200000Z 02004KT CAVOK 23/21 Q1013

Airport on the map: